Weather History for Quincy, IL

Change the Weather History Date:

Sunday, December 1, 2013

  Actual Average Record
Temperature  
Mean Temperature 40 °F 35 °F  
Max Temperature 51 °F 43 °F 67 °F (1913)
Min Temperature 28 °F 27 °F 7 °F (1985)
Degree Days  
Heating Degree Days 25 30  
Month to date heating degree days 25 30  
Since 1 July heating degree days 1158 1130  
Cooling Degree Days 0 0  
Month to date cooling degree days 0 0  
Year to date cooling degree days 1242 1094  
Moisture  
Dew Point 30 °F    
Average Humidity 72    
Maximum Humidity 100    
Minimum Humidity 44    
Precipitation  
Precipitation 0.00 in 0.09 in 0.83 in (1985)
Month to date precipitation 0.00 0.09  
Year to date precipitation 34.59 35.17  
Sea Level Pressure  
Sea Level Pressure 30.07 in    
Wind  
Wind Speed 3 mph (NNW)    
Max Wind Speed 7 mph    
Max Gust Speed 10 mph    
Visibility 6 miles    
Events Fog    
T = Trace of Precipitation, MM = Missing Value Source: NWS Daily Summary

Daily Weather History Graph

Daily Weather History Graph

Search for Another Location

Airport:

Trip Planner

Search our weather history database for the weather conditions in past years. The results will help you decide how hot, cold, wet, or windy it might be!

Date:

Astronomy

Dec. 01, 2013 Rise Set
Actual Time 7:07 AM CST 4:40 PM CST
Civil Twilight 6:37 AM CST 5:10 PM CST
Nautical Twilight 6:03 AM CST 5:43 PM CST
Astronomical Twilight 5:31 AM CST 6:16 PM CST
Moon 5:25 AM CST (12/1) 3:50 PM CST (12/1)
Length of Visible Light 10h 32m
Length of Day
9h 32m
Waning Crescent, 2% of the Moon is Illuminated
Dec 1
Waning Crescent
Dec 2
New
Dec 9
First Quarter
Dec 17
Full
Dec 25
Last Quarter

Hourly Weather History & Observations

Time (CST) Temp. Windchill Dew Point Humidity Pressure Visibility Wind Dir Wind Speed Gust Speed Precip Events Conditions
12:54 AM 36.0 °F 33.3 °F 32.0 °F 86% 30.10 in 10.0 mi WSW 3.5 mph - N/A   Clear
1:54 AM 34.0 °F 29.8 °F 32.0 °F 92% 30.10 in 7.0 mi WSW 4.6 mph - N/A   Clear
2:54 AM 28.9 °F 23.9 °F 28.0 °F 96% 30.11 in 4.0 mi SW 4.6 mph - N/A   Clear
3:54 AM 30.0 °F 26.5 °F 28.0 °F 92% 30.10 in 4.0 mi SW 3.5 mph - N/A   Clear
4:30 AM 30.9 °F 27.5 °F 28.9 °F 92% 30.10 in 1.8 mi SSW 3.5 mph - N/A   Clear
4:54 AM 30.9 °F 27.5 °F 28.9 °F 92% 30.12 in 2.5 mi SW 3.5 mph - N/A   Clear
5:01 AM 30.0 °F 24.1 °F 28.9 °F 96% 30.10 in 3.0 mi SSW 5.8 mph - N/A   Clear
5:37 AM 30.0 °F - 28.0 °F 92% 30.10 in 1.8 mi Calm Calm - N/A   Clear
5:54 AM 28.0 °F 24.2 °F 27.0 °F 96% 30.12 in 0.5 mi WNW 3.5 mph - N/A Fog Light Freezing Fog
6:18 AM 30.0 °F - 27.0 °F 88% 30.10 in 0.2 mi Calm Calm - N/A Fog Light Freezing Fog
6:54 AM 30.0 °F - 28.0 °F 92% 30.13 in 0.2 mi Calm Calm - N/A Fog Light Freezing Fog
7:23 AM 28.9 °F 25.2 °F 27.0 °F 92% 30.11 in 0.2 mi NW 3.5 mph - N/A Fog Light Freezing Fog
7:41 AM 28.9 °F - 28.9 °F 100% 30.12 in 0.2 mi Calm Calm - N/A Fog Light Freezing Fog
7:54 AM 30.9 °F 26.2 °F 28.9 °F 92% 30.14 in 0.2 mi NW 4.6 mph - N/A Fog Light Freezing Fog
8:22 AM 32.0 °F 28.7 °F 30.0 °F 92% 30.12 in 0.8 mi WNW 3.5 mph - N/A   Clear
8:33 AM 33.1 °F - 32.0 °F 96% 30.12 in 1.5 mi Calm Calm - N/A   Clear
8:42 AM 34.0 °F - 33.1 °F 96% 30.12 in 3.0 mi Calm Calm - N/A   Clear
8:54 AM 35.1 °F 32.2 °F 33.1 °F 92% 30.14 in 4.0 mi NNW 3.5 mph - N/A   Clear
9:54 AM 41.0 °F - 34.0 °F 76% 30.14 in 8.0 mi Calm Calm - N/A   Clear
10:54 AM 44.1 °F - 34.0 °F 68% 30.13 in 10.0 mi Calm Calm - N/A   Clear
11:54 AM 46.9 °F - 32.0 °F 56% 30.09 in 10.0 mi Calm Calm - N/A   Clear
12:54 PM 48.9 °F - 30.9 °F 50% 30.06 in 10.0 mi Calm Calm - N/A   Clear
1:54 PM 51.1 °F - 30.9 °F 46% 30.04 in 10.0 mi North 5.8 mph - N/A   Clear
2:54 PM 50.0 °F - 30.0 °F 46% 30.03 in 10.0 mi Calm Calm - N/A   Clear
3:54 PM 46.9 °F - 32.0 °F 56% 30.02 in 10.0 mi NE 5.8 mph - N/A   Clear
4:54 PM 44.1 °F 41.5 °F 30.0 °F 58% 30.01 in 10.0 mi ENE 4.6 mph - N/A   Clear
5:54 PM 41.0 °F 39.0 °F 30.0 °F 65% 30.02 in 9.0 mi NE 3.5 mph - N/A   Clear
6:54 PM 42.1 °F 39.2 °F 30.0 °F 62% 30.00 in 10.0 mi East 4.6 mph - N/A   Clear
7:54 PM 39.0 °F 34.8 °F 28.9 °F 67% 30.00 in 10.0 mi NE 5.8 mph - N/A   Clear
8:54 PM 37.9 °F 34.4 °F 30.0 °F 73% 29.98 in 9.0 mi ENE 4.6 mph - N/A   Scattered Clouds
9:54 PM 37.0 °F 33.3 °F 28.9 °F 73% 29.97 in 9.0 mi ENE 4.6 mph - N/A   Mostly Cloudy
10:54 PM 39.0 °F 34.0 °F 28.9 °F 67% 29.93 in 10.0 mi East 6.9 mph - N/A   Scattered Clouds
11:54 PM 37.9 °F 35.5 °F 28.9 °F 70% 29.94 in 9.0 mi East 3.5 mph - N/A   Partly Cloudy